Saint Bonnet de Bellac- Haute Vienne - France
Donnes mto: mardi, 12/06/2012
Date Horaire Temp. E. Hum. E. P.atmo. Pluie Vent Direction Direction Ensoleilleme Solaire P. de rose Temp au vent Rafales
12/06/2012 00:00 11,8 C 92 % 1004,4 hPa 0,0 mm 4,3 km/h (1 Bft) S 180 0 min 0 W/m 10,5 C 11,8 C 6,5 km/h (2 Bft)
12/06/2012 00:10 11,8 C 92 % 1004,5 hPa 0,0 mm 5,0 km/h (1 Bft) O-SO 247 0 min 0 W/m 10,5 C 11,8 C 10,1 km/h (2 Bft)
12/06/2012 00:20 11,8 C 93 % 1004,4 hPa 0,0 mm 3,6 km/h (1 Bft) S-SO 202 0 min 0 W/m 10,7 C 11,8 C 8,3 km/h (2 Bft)
12/06/2012 00:30 11,9 C 93 % 1004,5 hPa 0,0 mm 4,0 km/h (1 Bft) SO 225 0 min 0 W/m 10,8 C 11,9 C 7,2 km/h (2 Bft)
12/06/2012 00:40 11,9 C 93 % 1004,5 hPa 0,0 mm 1,1 km/h (1 Bft) SO 225 0 min 0 W/m 10,8 C 11,9 C 1,1 km/h (1 Bft)
12/06/2012 00:50 11,9 C 93 % 1004,5 hPa 0,1 mm 6,8 km/h (2 Bft) S-SO 202 0 min 0 W/m 10,8 C 11,9 C 15,1 km/h (3 Bft)
12/06/2012 01:00 11,8 C 93 % 1004,5 hPa 0,0 mm 4,0 km/h (1 Bft) SO 225 0 min 0 W/m 10,7 C 11,8 C 6,1 km/h (2 Bft)
12/06/2012 01:10 11,8 C 93 % 1004,5 hPa 0,0 mm 3,6 km/h (1 Bft) S-SO 202 0 min 0 W/m 10,7 C 11,8 C 6,8 km/h (2 Bft)
12/06/2012 01:20 11,8 C 93 % 1004,4 hPa 0,0 mm 5,4 km/h (2 Bft) SO 225 0 min 0 W/m 10,7 C 11,8 C 5,4 km/h (2 Bft)
12/06/2012 01:30 11,8 C 93 % 1004,5 hPa 0,0 mm 5,8 km/h (2 Bft) S 180 0 min 0 W/m 10,7 C 11,8 C 12,6 km/h (3 Bft)
12/06/2012 01:40 11,7 C 93 % 1004,6 hPa 0,0 mm 6,8 km/h (2 Bft) SO 225 0 min 0 W/m 10,6 C 11,7 C 11,9 km/h (2 Bft)
12/06/2012 01:50 11,7 C 93 % 1004,6 hPa 0,0 mm 5,8 km/h (2 Bft) SO 225 0 min 0 W/m 10,6 C 11,7 C 11,5 km/h (2 Bft)
12/06/2012 02:00 11,7 C 93 % 1004,6 hPa 0,0 mm 2,5 km/h (1 Bft) S 180 0 min 0 W/m 10,6 C 11,7 C 6,1 km/h (2 Bft)
12/06/2012 02:10 11,7 C 93 % 1004,7 hPa 0,0 mm 3,6 km/h (1 Bft) O 270 0 min 0 W/m 10,6 C 11,7 C 5,0 km/h (1 Bft)
12/06/2012 02:20 11,7 C 93 % 1004,7 hPa 0,0 mm 2,9 km/h (1 Bft) S 180 0 min 0 W/m 10,6 C 11,7 C 6,1 km/h (2 Bft)
12/06/2012 02:30 11,8 C 93 % 1004,7 hPa 0,0 mm 2,9 km/h (1 Bft) SO 225 0 min 0 W/m 10,7 C 11,8 C 7,2 km/h (2 Bft)
12/06/2012 02:40 11,8 C 93 % 1004,7 hPa 0,0 mm 3,6 km/h (1 Bft) SO 225 0 min 0 W/m 10,7 C 11,8 C 3,6 km/h (1 Bft)
12/06/2012 02:50 11,7 C 93 % 1004,7 hPa 0,0 mm 5,4 km/h (2 Bft) O 270 0 min 0 W/m 10,6 C 11,7 C 10,1 km/h (2 Bft)
12/06/2012 03:02 11,6 C 93 % 1004,6 hPa 0,0 mm 2,9 km/h (1 Bft) O-SO 247 0 min 0 W/m 10,5 C 11,6 C 6,5 km/h (2 Bft)
12/06/2012 03:10 11,7 C 93 % 1004,7 hPa 0,0 mm 0,0 km/h (0 Bft) SO 225 0 min 0 W/m 10,6 C 11,7 C 0,0 km/h (0 Bft)
12/06/2012 03:20 11,7 C 93 % 1004,7 hPa 0,0 mm 0,0 km/h (0 Bft) O-SO 247 0 min 0 W/m 10,6 C 11,7 C 0,0 km/h (0 Bft)
12/06/2012 03:30 11,8 C 93 % 1004,7 hPa 0,0 mm 2,5 km/h (1 Bft) O 270 0 min 0 W/m 10,7 C 11,8 C 8,3 km/h (2 Bft)
12/06/2012 03:40 11,8 C 93 % 1004,8 hPa 0,0 mm 1,4 km/h (1 Bft) O-SO 247 0 min 0 W/m 10,7 C 11,8 C 1,8 km/h (1 Bft)
12/06/2012 03:50 11,8 C 93 % 1004,7 hPa 0,0 mm 0,0 km/h (0 Bft) O-SO 247 0 min 0 W/m 10,7 C 11,8 C 0,0 km/h (0 Bft)
12/06/2012 04:00 11,8 C 93 % 1004,9 hPa 0,0 mm 0,0 km/h (0 Bft) O-NO 292 0 min 0 W/m 10,7 C 11,8 C 0,0 km/h (0 Bft)
12/06/2012 04:10 11,9 C 94 % 1004,8 hPa 0,0 mm 0,0 km/h (0 Bft) SO 225 0 min 0 W/m 11,0 C 11,9 C 3,6 km/h (1 Bft)
12/06/2012 04:20 11,9 C 94 % 1004,8 hPa 0,0 mm 3,2 km/h (1 Bft) O-SO 247 0 min 0 W/m 11,0 C 11,9 C 6,1 km/h (2 Bft)
12/06/2012 04:30 11,9 C 94 % 1004,8 hPa 0,1 mm 2,9 km/h (1 Bft) O-SO 247 0 min 0 W/m 11,0 C 11,9 C 2,9 km/h (1 Bft)
12/06/2012 04:40 11,9 C 94 % 1004,8 hPa 0,0 mm 5,8 km/h (2 Bft) O 270 0 min 0 W/m 11,0 C 11,9 C 9,7 km/h (2 Bft)
12/06/2012 04:50 11,9 C 94 % 1004,9 hPa 0,0 mm 3,2 km/h (1 Bft) S-SO 202 0 min 0 W/m 11,0 C 11,9 C 7,6 km/h (2 Bft)
12/06/2012 05:00 11,8 C 93 % 1004,9 hPa 0,0 mm 3,6 km/h (1 Bft) O-SO 247 0 min 0 W/m 10,7 C 11,8 C 8,6 km/h (2 Bft)
12/06/2012 05:10 11,9 C 94 % 1005,0 hPa 0,1 mm 1,1 km/h (1 Bft) O 270 0 min 0 W/m 11,0 C 11,9 C 3,2 km/h (1 Bft)
12/06/2012 05:20 11,8 C 93 % 1005,1 hPa 0,0 mm 2,9 km/h (1 Bft) O-SO 247 0 min 0 W/m 10,7 C 11,8 C 4,3 km/h (1 Bft)
12/06/2012 05:30 11,8 C 93 % 1005,2 hPa 0,0 mm 0,7 km/h (0 Bft) O-SO 247 0 min 0 W/m 10,7 C 11,8 C 4,0 km/h (1 Bft)
12/06/2012 05:40 11,8 C 93 % 1005,3 hPa 0,0 mm 1,1 km/h (1 Bft) SO 225 0 min 0 W/m 10,7 C 11,8 C 3,6 km/h (1 Bft)
12/06/2012 05:50 11,7 C 93 % 1005,3 hPa 0,0 mm 0,0 km/h (0 Bft) O-NO 292 0 min 0 W/m 10,6 C 11,7 C 0,0 km/h (0 Bft)
12/06/2012 06:00 11,7 C 93 % 1005,3 hPa 0,0 mm 1,1 km/h (1 Bft) O 270 0 min 0 W/m 10,6 C 11,7 C 5,8 km/h (2 Bft)
12/06/2012 06:10 11,7 C 93 % 1005,4 hPa 0,0 mm 0,0 km/h (0 Bft) O-SO 247 0 min 0 W/m 10,6 C 11,7 C 1,8 km/h (1 Bft)
12/06/2012 06:20 11,7 C 93 % 1005,6 hPa 0,0 mm 3,6 km/h (1 Bft) O-SO 247 0 min 0 W/m 10,6 C 11,7 C 3,6 km/h (1 Bft)
12/06/2012 06:30 11,7 C 93 % 1005,8 hPa 0,0 mm 5,8 km/h (2 Bft) NO 315 0 min 0 W/m 10,6 C 11,7 C 7,6 km/h (2 Bft)
12/06/2012 06:40 11,7 C 93 % 1005,9 hPa 0,0 mm 0,0 km/h (0 Bft) NO 315 0 min 0 W/m 10,6 C 11,7 C 0,0 km/h (0 Bft)
12/06/2012 06:50 11,6 C 93 % 1006,0 hPa 0,0 mm 3,2 km/h (1 Bft) N-NO 337 0 min 0 W/m 10,5 C 11,6 C 9,7 km/h (2 Bft)
12/06/2012 07:00 11,6 C 93 % 1006,1 hPa 0,1 mm 4,7 km/h (1 Bft) O-NO 292 0 min 0 W/m 10,5 C 11,6 C 13,7 km/h (3 Bft)
12/06/2012 07:10 11,4 C 93 % 1006,3 hPa 0,1 mm 5,8 km/h (2 Bft) N-NO 337 0 min 0 W/m 10,3 C 11,4 C 9,4 km/h (2 Bft)
12/06/2012 07:20 11,2 C 93 % 1006,4 hPa 0,0 mm 0,4 km/h (0 Bft) O 270 0 min 0 W/m 10,1 C 11,2 C 6,8 km/h (2 Bft)
12/06/2012 07:30 11,2 C 93 % 1006,6 hPa 0,0 mm 0,0 km/h (0 Bft) O-NO 292 0 min 0 W/m 10,1 C 11,2 C 0,0 km/h (0 Bft)
12/06/2012 07:40 11,1 C 93 % 1006,7 hPa 0,0 mm 0,4 km/h (0 Bft) O-SO 247 0 min 0 W/m 10,0 C 11,1 C 3,6 km/h (1 Bft)
12/06/2012 07:50 11,2 C 93 % 1006,8 hPa 0,0 mm 0,4 km/h (0 Bft) O-SO 247 0 min 0 W/m 10,1 C 11,2 C 3,2 km/h (1 Bft)
12/06/2012 08:00 11,4 C 93 % 1006,8 hPa 0,0 mm 3,2 km/h (1 Bft) O-SO 247 0 min 0 W/m 10,3 C 11,4 C 8,3 km/h (2 Bft)
12/06/2012 08:10 11,5 C 93 % 1006,9 hPa 0,0 mm 0,0 km/h (0 Bft) O-SO 247 0 min 0 W/m 10,4 C 11,5 C 3,2 km/h (1 Bft)
12/06/2012 08:20 11,8 C 93 % 1007,1 hPa 0,0 mm 2,9 km/h (1 Bft) O-SO 247 0 min 0 W/m 10,7 C 11,8 C 4,0 km/h (1 Bft)
12/06/2012 08:30 11,9 C 94 % 1007,3 hPa 0,0 mm 6,8 km/h (2 Bft) N-NO 337 0 min 0 W/m 11,0 C 11,9 C 6,8 km/h (2 Bft)
12/06/2012 08:40 12,2 C 94 % 1007,4 hPa 0,0 mm 10,4 km/h (2 Bft) O-NO 292 0 min 0 W/m 11,3 C 12,2 C 14,8 km/h (3 Bft)
12/06/2012 08:50 12,6 C 93 % 1007,5 hPa 0,0 mm 1,8 km/h (1 Bft) NO 315 0 min 0 W/m 11,5 C 12,6 C 6,1 km/h (2 Bft)
12/06/2012 09:00 12,8 C 92 % 1007,7 hPa 0,0 mm 0,7 km/h (0 Bft) NO 315 0 min 0 W/m 11,5 C 12,8 C 6,5 km/h (2 Bft)
12/06/2012 09:10 12,9 C 92 % 1007,7 hPa 0,0 mm 3,6 km/h (1 Bft) NO 315 0 min 0 W/m 11,6 C 12,9 C 7,2 km/h (2 Bft)
12/06/2012 09:20 13,1 C 91 % 1007,9 hPa 0,0 mm 3,2 km/h (1 Bft) O-NO 292 0 min 0 W/m 11,7 C 13,1 C 7,6 km/h (2 Bft)
12/06/2012 09:30 13,6 C 91 % 1008,0 hPa 0,0 mm 1,4 km/h (1 Bft) N-NO 337 0 min 0 W/m 12,2 C 13,6 C 4,3 km/h (1 Bft)
12/06/2012 09:40 13,9 C 88 % 1008,2 hPa 0,0 mm 0,7 km/h (0 Bft) O 270 0 min 0 W/m 11,9 C 13,9 C 6,1 km/h (2 Bft)
12/06/2012 09:50 13,5 C 87 % 1008,2 hPa 0,0 mm 2,2 km/h (1 Bft) O-SO 247 0 min 0 W/m 11,4 C 13,5 C 7,2 km/h (2 Bft)
12/06/2012 10:00 13,8 C 88 % 1008,3 hPa 0,0 mm 6,1 km/h (2 Bft) NO 315 0 min 0 W/m 11,8 C 13,8 C 10,4 km/h (2 Bft)
12/06/2012 10:10 14,3 C 86 % 1008,4 hPa 0,0 mm 0,0 km/h (0 Bft) SO 225 0 min 0 W/m 12,0 C 14,3 C 0,0 km/h (0 Bft)
12/06/2012 10:20 14,4 C 84 % 1008,5 hPa 0,0 mm 6,8 km/h (2 Bft) NO 315 0 min 0 W/m 11,7 C 14,4 C 8,3 km/h (2 Bft)
12/06/2012 10:30 14,5 C 83 % 1008,5 hPa 0,0 mm 3,2 km/h (1 Bft) O 270 0 min 0 W/m 11,6 C 14,5 C 4,0 km/h (1 Bft)
12/06/2012 10:40 14,8 C 80 % 1008,5 hPa 0,0 mm 2,5 km/h (1 Bft) O 270 0 min 0 W/m 11,4 C 14,8 C 10,1 km/h (2 Bft)
12/06/2012 10:50 15,1 C 80 % 1008,5 hPa 0,0 mm 0,7 km/h (0 Bft) O 270 0 min 0 W/m 11,7 C 15,1 C 3,2 km/h (1 Bft)
12/06/2012 11:00 15,7 C 79 % 1008,6 hPa 0,0 mm 1,4 km/h (1 Bft) O-NO 292 0 min 0 W/m 12,1 C 15,7 C 3,6 km/h (1 Bft)
12/06/2012 11:10 15,9 C 77 % 1008,8 hPa 0,0 mm 0,0 km/h (0 Bft) O-SO 247 0 min 0 W/m 11,9 C 15,9 C 0,0 km/h (0 Bft)
12/06/2012 11:20 16,1 C 77 % 1008,8 hPa 0,0 mm 2,2 km/h (1 Bft) NO 315 0 min 0 W/m 12,1 C 16,1 C 7,9 km/h (2 Bft)
12/06/2012 11:30 16,2 C 74 % 1009,0 hPa 0,0 mm 1,1 km/h (1 Bft) O 270 0 min 0 W/m 11,6 C 16,2 C 6,1 km/h (2 Bft)
12/06/2012 11:40 16,1 C 74 % 1009,0 hPa 0,0 mm 1,4 km/h (1 Bft) O-SO 247 0 min 0 W/m 11,5 C 16,1 C 4,0 km/h (1 Bft)
12/06/2012 11:50 16,3 C 74 % 1009,2 hPa 0,0 mm 0,0 km/h (0 Bft) O-SO 247 0 min 0 W/m 11,7 C 16,3 C 0,0 km/h (0 Bft)
12/06/2012 12:00 16,6 C 74 % 1009,2 hPa 0,0 mm 2,2 km/h (1 Bft) S-SO 202 0 min 0 W/m 11,9 C 16,6 C 4,3 km/h (1 Bft)
12/06/2012 12:10 16,8 C 70 % 1009,2 hPa 0,0 mm 6,8 km/h (2 Bft) SO 225 0 min 0 W/m 11,3 C 16,8 C 16,6 km/h (3 Bft)
12/06/2012 12:20 16,8 C 72 % 1009,4 hPa 0,0 mm 2,9 km/h (1 Bft) SO 225 0 min 0 W/m 11,7 C 16,8 C 6,8 km/h (2 Bft)
12/06/2012 12:30 17,1 C 69 % 1009,3 hPa 0,0 mm 7,6 km/h (2 Bft) O-NO 292 0 min 0 W/m 11,4 C 17,1 C 8,3 km/h (2 Bft)
12/06/2012 12:40 17,4 C 68 % 1009,4 hPa 0,0 mm 10,1 km/h (2 Bft) SO 225 0 min 0 W/m 11,4 C 17,4 C 10,1 km/h (2 Bft)
12/06/2012 12:50 17,3 C 67 % 1009,5 hPa 0,0 mm 5,0 km/h (1 Bft) N-NO 337 0 min 0 W/m 11,1 C 17,3 C 12,6 km/h (3 Bft)
12/06/2012 13:00 17,0 C 69 % 1009,6 hPa 0,0 mm 10,4 km/h (2 Bft) O-SO 247 0 min 0 W/m 11,3 C 17,0 C 10,4 km/h (2 Bft)
12/06/2012 13:10 17,1 C 68 % 1009,5 hPa 0,0 mm 4,3 km/h (1 Bft) SO 225 0 min 0 W/m 11,1 C 17,1 C 10,8 km/h (2 Bft)
12/06/2012 13:20 16,9 C 70 % 1009,6 hPa 0,0 mm 2,9 km/h (1 Bft) O 270 0 min 0 W/m 11,4 C 16,9 C 4,0 km/h (1 Bft)
12/06/2012 13:30 17,1 C 68 % 1009,6 hPa 0,0 mm 8,6 km/h (2 Bft) O 270 0 min 0 W/m 11,1 C 17,1 C 17,6 km/h (3 Bft)
12/06/2012 13:40 17,5 C 69 % 1009,7 hPa 0,0 mm 9,0 km/h (2 Bft) O-SO 247 0 min 0 W/m 11,7 C 17,5 C 9,0 km/h (2 Bft)
12/06/2012 13:50 17,9 C 67 % 1009,6 hPa 0,0 mm 7,2 km/h (2 Bft) SO 225 0 min 0 W/m 11,7 C 17,9 C 8,6 km/h (2 Bft)
12/06/2012 14:00 17,9 C 64 % 1009,7 hPa 0,0 mm 6,1 km/h (2 Bft) O-SO 247 0 min 0 W/m 11,0 C 17,9 C 10,1 km/h (2 Bft)
12/06/2012 14:10 17,7 C 65 % 1009,8 hPa 0,0 mm 6,5 km/h (2 Bft) O-NO 292 0 min 0 W/m 11,0 C 17,7 C 11,5 km/h (2 Bft)
12/06/2012 14:20 17,3 C 65 % 1009,9 hPa 0,0 mm 5,0 km/h (1 Bft) O-SO 247 0 min 0 W/m 10,7 C 17,3 C 13,0 km/h (3 Bft)
12/06/2012 14:30 16,8 C 68 % 1009,8 hPa 0,0 mm 4,7 km/h (1 Bft) N-NE 22 0 min 0 W/m 10,9 C 16,8 C 11,5 km/h (2 Bft)
12/06/2012 14:40 17,2 C 70 % 1009,8 hPa 0,0 mm 5,0 km/h (1 Bft) S-SO 202 0 min 0 W/m 11,7 C 17,2 C 8,3 km/h (2 Bft)
12/06/2012 14:50 17,5 C 67 % 1010,0 hPa 0,0 mm 2,5 km/h (1 Bft) O 270 0 min 0 W/m 11,3 C 17,5 C 9,7 km/h (2 Bft)
12/06/2012 15:00 17,3 C 68 % 1009,9 hPa 0,0 mm 2,9 km/h (1 Bft) O 270 0 min 0 W/m 11,3 C 17,3 C 4,0 km/h (1 Bft)
12/06/2012 15:10 17,3 C 70 % 1009,9 hPa 0,0 mm 1,4 km/h (1 Bft) SO 225 0 min 0 W/m 11,8 C 17,3 C 1,4 km/h (1 Bft)
12/06/2012 15:20 17,2 C 69 % 1010,0 hPa 0,0 mm 2,2 km/h (1 Bft) SO 225 0 min 0 W/m 11,5 C 17,2 C 4,3 km/h (1 Bft)
12/06/2012 15:30 17,6 C 69 % 1010,0 hPa 0,0 mm 7,2 km/h (2 Bft) S-SO 202 0 min 0 W/m 11,8 C 17,6 C 12,6 km/h (3 Bft)
12/06/2012 15:40 17,9 C 68 % 1010,0 hPa 0,0 mm 4,0 km/h (1 Bft) O 270 0 min 0 W/m 11,9 C 17,9 C 13,7 km/h (3 Bft)
12/06/2012 15:50 18,0 C 68 % 1010,0 hPa 0,0 mm 4,0 km/h (1 Bft) O-SO 247 0 min 0 W/m 12,0 C 18,0 C 8,3 km/h (2 Bft)
12/06/2012 16:00 18,3 C 67 % 1010,0 hPa 0,0 mm 6,8 km/h (2 Bft) O-NO 292 0 min 0 W/m 12,1 C 18,3 C 6,8 km/h (2 Bft)
12/06/2012 16:10 18,4 C 65 % 1010,1 hPa 0,0 mm 1,8 km/h (1 Bft) O-SO 247 0 min 0 W/m 11,7 C 18,4 C 4,7 km/h (1 Bft)
12/06/2012 16:20 18,6 C 63 % 1010,1 hPa 0,0 mm 2,2 km/h (1 Bft) O-SO 247 0 min 0 W/m 11,4 C 18,6 C 9,0 km/h (2 Bft)
12/06/2012 16:30 18,6 C 64 % 1010,2 hPa 0,0 mm 4,0 km/h (1 Bft) O 270 0 min 0 W/m 11,7 C 18,6 C 4,0 km/h (1 Bft)
12/06/2012 16:40 18,8 C 62 % 1010,3 hPa 0,0 mm 4,7 km/h (1 Bft) O 270 0 min 0 W/m 11,4 C 18,8 C 6,8 km/h (2 Bft)
12/06/2012 16:50 18,8 C 61 % 1010,5 hPa 0,0 mm 5,8 km/h (2 Bft) O 270 0 min 0 W/m 11,1 C 18,8 C 9,7 km/h (2 Bft)
12/06/2012 17:00 18,9 C 63 % 1010,4 hPa 0,0 mm 1,4 km/h (1 Bft) O-NO 292 0 min 0 W/m 11,7 C 18,9 C 2,9 km/h (1 Bft)
12/06/2012 17:10 18,6 C 63 % 1010,7 hPa 0,0 mm 10,8 km/h (2 Bft) N-NO 337 0 min 0 W/m 11,4 C 18,6 C 14,8 km/h (3 Bft)
12/06/2012 17:20 17,7 C 66 % 1011,1 hPa 0,1 mm 1,8 km/h (1 Bft) O 270 0 min 0 W/m 11,3 C 17,7 C 3,6 km/h (1 Bft)
12/06/2012 17:30 16,9 C 70 % 1010,9 hPa 0,3 mm 0,0 km/h (0 Bft) N-NO 337 0 min 0 W/m 11,4 C 16,9 C 0,0 km/h (0 Bft)
12/06/2012 17:40 16,9 C 75 % 1010,7 hPa 0,0 mm 8,6 km/h (2 Bft) NO 315 0 min 0 W/m 12,4 C 16,9 C 10,4 km/h (2 Bft)
12/06/2012 17:50 17,2 C 74 % 1010,9 hPa 0,0 mm 11,2 km/h (2 Bft) N 360 0 min 0 W/m 12,5 C 17,2 C 25,6 km/h (4 Bft)
12/06/2012 18:00 17,1 C 72 % 1011,1 hPa 0,0 mm 11,2 km/h (2 Bft) N-NO 337 0 min 0 W/m 12,0 C 17,1 C 21,6 km/h (4 Bft)
12/06/2012 18:10 17,1 C 72 % 1011,3 hPa 0,0 mm 5,0 km/h (1 Bft) N-NO 337 0 min 0 W/m 12,0 C 17,1 C 5,0 km/h (1 Bft)
12/06/2012 18:20 17,2 C 70 % 1011,5 hPa 0,0 mm 3,6 km/h (1 Bft) NO 315 0 min 0 W/m 11,7 C 17,2 C 10,1 km/h (2 Bft)
12/06/2012 18:30 17,1 C 69 % 1011,6 hPa 0,0 mm 5,8 km/h (2 Bft) O-NO 292 0 min 0 W/m 11,4 C 17,1 C 5,8 km/h (2 Bft)
12/06/2012 18:40 16,8 C 68 % 1011,7 hPa 0,0 mm 7,9 km/h (2 Bft) NO 315 0 min 0 W/m 10,9 C 16,8 C 11,2 km/h (2 Bft)
12/06/2012 18:50 17,0 C 69 % 1011,8 hPa 0,0 mm 1,4 km/h (1 Bft) O-NO 292 0 min 0 W/m 11,3 C 17,0 C 4,3 km/h (1 Bft)
12/06/2012 19:00 17,2 C 67 % 1011,9 hPa 0,0 mm 7,2 km/h (2 Bft) N 360 0 min 0 W/m 11,0 C 17,2 C 16,6 km/h (3 Bft)
12/06/2012 19:10 17,3 C 65 % 1012,2 hPa 0,0 mm 2,5 km/h (1 Bft) O-NO 292 0 min 0 W/m 10,7 C 17,3 C 7,9 km/h (2 Bft)
12/06/2012 19:20 17,1 C 66 % 1012,3 hPa 0,0 mm 5,4 km/h (2 Bft) SO 225 0 min 0 W/m 10,7 C 17,1 C 5,4 km/h (2 Bft)
12/06/2012 19:30 16,9 C 67 % 1012,2 hPa 0,0 mm 4,3 km/h (1 Bft) NO 315 0 min 0 W/m 10,7 C 16,9 C 15,5 km/h (3 Bft)
12/06/2012 19:40 16,6 C 67 % 1012,3 hPa 0,0 mm 5,8 km/h (2 Bft) O 270 0 min 0 W/m 10,4 C 16,6 C 10,4 km/h (2 Bft)
12/06/2012 19:50 16,4 C 68 % 1012,4 hPa 0,0 mm 2,9 km/h (1 Bft) NO 315 0 min 0 W/m 10,5 C 16,4 C 9,4 km/h (2 Bft)
12/06/2012 20:00 15,9 C 68 % 1012,5 hPa 0,0 mm 0,0 km/h (0 Bft) SO 225 0 min 0 W/m 10,0 C 15,9 C 0,0 km/h (0 Bft)
12/06/2012 20:10 15,4 C 70 % 1012,5 hPa 0,0 mm 1,4 km/h (1 Bft) O-SO 247 0 min 0 W/m 10,0 C 15,4 C 4,0 km/h (1 Bft)
12/06/2012 20:20 15,2 C 70 % 1012,6 hPa 0,0 mm 0,4 km/h (0 Bft) O 270 0 min 0 W/m 9,8 C 15,2 C 0,4 km/h (0 Bft)
12/06/2012 20:30 14,9 C 71 % 1012,7 hPa 0,0 mm 0,7 km/h (0 Bft) O-SO 247 0 min 0 W/m 9,7 C 14,9 C 4,0 km/h (1 Bft)
12/06/2012 20:40 14,8 C 73 % 1012,7 hPa 0,0 mm 1,1 km/h (1 Bft) O-SO 247 0 min 0 W/m 10,0 C 14,8 C 4,3 km/h (1 Bft)
12/06/2012 20:50 14,6 C 73 % 1012,8 hPa 0,0 mm 2,9 km/h (1 Bft) SO 225 0 min 0 W/m 9,8 C 14,6 C 4,0 km/h (1 Bft)
12/06/2012 21:00 14,5 C 73 % 1012,9 hPa 0,0 mm 1,1 km/h (1 Bft) O 270 0 min 0 W/m 9,7 C 14,5 C 4,3 km/h (1 Bft)
12/06/2012 21:10 14,4 C 77 % 1013,0 hPa 0,0 mm 1,4 km/h (1 Bft) SO 225 0 min 0 W/m 10,4 C 14,4 C 4,0 km/h (1 Bft)
12/06/2012 21:20 14,3 C 77 % 1013,0 hPa 0,0 mm 3,6 km/h (1 Bft) O 270 0 min 0 W/m 10,3 C 14,3 C 4,0 km/h (1 Bft)
12/06/2012 21:30 14,0 C 75 % 1013,1 hPa 0,0 mm 2,2 km/h (1 Bft) SE 135 0 min 0 W/m 9,6 C 14,0 C 4,3 km/h (1 Bft)
12/06/2012 21:40 13,9 C 76 % 1013,2 hPa 0,0 mm 1,1 km/h (1 Bft) O-SO 247 0 min 0 W/m 9,7 C 13,9 C 1,1 km/h (1 Bft)
12/06/2012 21:50 13,8 C 80 % 1013,2 hPa 0,0 mm 2,9 km/h (1 Bft) O 270 0 min 0 W/m 10,4 C 13,8 C 4,3 km/h (1 Bft)
12/06/2012 22:00 13,6 C 82 % 1013,4 hPa 0,0 mm 2,5 km/h (1 Bft) SO 225 0 min 0 W/m 10,6 C 13,6 C 6,5 km/h (2 Bft)
12/06/2012 22:10 13,4 C 84 % 1013,6 hPa 0,0 mm 4,0 km/h (1 Bft) S-SO 202 0 min 0 W/m 10,8 C 13,4 C 8,6 km/h (2 Bft)
12/06/2012 22:20 13,3 C 85 % 1013,7 hPa 0,0 mm 4,7 km/h (1 Bft) SO 225 0 min 0 W/m 10,8 C 13,3 C 6,5 km/h (2 Bft)
12/06/2012 22:30 13,1 C 84 % 1014,0 hPa 0,0 mm 2,5 km/h (1 Bft) S-SO 202 0 min 0 W/m 10,5 C 13,1 C 4,0 km/h (1 Bft)
_ Min-Heure 07:40 16:50 01:20 - 20:00 - - - - 21:30 07:40 20:00
Minimum _ 11,1 C 61 % 1004,4 hPa - 0,0 km/h (0 Bft) - - - - 9,6 C 11,1 C 0,0 km/h (0 Bft)
_ Max-Heure 17:00 08:40 22:30 17:30 18:00 - - 22:30 22:30 17:50 17:00 17:50
Maximum _ 18,9 C 94 % 1014,0 hPa 0,3 mm 11,2 km/h
N-NO (2 Bft)
- - 0 min 0 W/m 12,5 C 18,9 C 25,6 km/h
N (4 Bft)
Moyenne _ 14,4 C 81 % 1008,5 hPa #0,9 mm 3,5 km/h (1 Bft) O-SO - #0 min. 0 W/m 11,0 C 14,4 C 6,8 km/h (2 Bft)
Saint Bonnet de Bellac- Haute Vienne - France